Flag for United Kingdom Weather past 2 weeks in Sutton Coldfield, England, United Kingdom

Now
48 °F

Sunny.


Feels Like: 43 °F
Forecast: 38 / 51 °F
Wind: 13 mph from Northeast

Location: Birmingham / Airport

Current Time: Apr 18, 2015 at 9:08:35 PM

Latest Report: Apr 18, 2015 at 8:20 PM


Visibility: 10 mi

Pressure: 30.36 "Hg

Humidity: 62%

Dew point: 36 °F

Location of Sutton ColdfieldLocation

Historic Weather in Sutton Coldfield — Graph

°F

Sutton Coldfield temperature yesterday

Maximum temperature yesterday: 54 °F (at 1:20 PM)
Minimum temperature yesterday: 41 °F (at 6:20 AM)
Average temperature yesterday: 48 °F

Past Weeks' High & Low Weather Summary

 TemperatureHumidityPressure
High66 °F (Apr 10, 3:20 PM)100% (Apr 5, 7:50 AM)30.63 "Hg (Apr 5, 7:50 AM)
Low30 °F (Apr 13, 6:50 AM)26% (Apr 15, 1:20 PM)29.77 "Hg (Apr 11, 5:50 AM)
Average50 °F71%30.25 "Hg
* Reported Apr 3 7:20 PM — Apr 18 7:50 PM, Sutton Coldfield, Weather by CustomWeather, © 2015

Note: Actual official high and low records may vary slightly from our data, if they occured in-between our weather recording intervals... More about our weather records

Advertising

Sutton Coldfield weather history for previous 24 hours

 ConditionsComfort  
Time TempWeatherWind HumidityBarometerVisibility
7:50 PM
Sat, Apr 18
50 °FPassing clouds.12 mph58%30.36 "HgN/A
7:20 PM52 °FPassing clouds.13 mph54%30.36 "HgN/A
6:50 PM54 °FSunny.14 mph51%30.36 "Hg10 mi
6:20 PM55 °FPassing clouds.13 mph47%30.33 "HgN/A
5:50 PM55 °FSunny.15 mph44%30.33 "Hg10 mi
5:20 PM55 °FSunny.15 mph44%30.36 "Hg10 mi
4:50 PM57 °FSunny.14 mph44%30.36 "Hg10 mi
4:20 PM57 °FSunny.16 mph41%30.36 "Hg10 mi
3:50 PM57 °FSunny.16 mph41%30.36 "Hg10 mi
3:20 PM57 °FPassing clouds.15 mph41%30.36 "HgN/A
2:50 PM57 °FPassing clouds.15 mph41%30.36 "HgN/A
2:20 PM57 °FPassing clouds.14 mph44%30.39 "HgN/A
1:50 PM55 °FPassing clouds.15 mph47%30.39 "HgN/A
1:20 PM55 °FPassing clouds.15 mph47%30.39 "HgN/A
12:50 PM54 °FSunny.15 mph51%30.39 "Hg10 mi
12:20 PM54 °FPassing clouds.14 mph51%30.39 "HgN/A
11:50 AM54 °FPassing clouds.15 mph47%30.39 "HgN/A
11:20 AM52 °FPassing clouds.15 mph50%30.39 "HgN/A
10:50 AM50 °FPassing clouds.13 mph58%30.42 "HgN/A
10:20 AM48 °FPassing clouds.12 mph62%30.42 "HgN/A
9:50 AM48 °FPassing clouds.12 mph62%30.39 "HgN/A
9:20 AM46 °FPassing clouds.13 mph71%30.42 "HgN/A
8:50 AM45 °FPassing clouds.14 mph76%30.42 "HgN/A
8:20 AM43 °FScattered clouds.13 mph81%30.39 "HgN/A
7:50 AM41 °FScattered clouds.10 mph87%30.39 "HgN/A
7:20 AM41 °FPassing clouds.9 mph81%30.39 "HgN/A
6:50 AM39 °FChilly.8 mph87%30.39 "HgN/A
6:20 AM39 °FPassing clouds.6 mph87%30.39 "HgN/A
5:50 AM39 °FPassing clouds.5 mph87%30.39 "HgN/A
5:20 AM39 °FPassing clouds.6 mph87%30.39 "HgN/A
4:50 AM39 °FPassing clouds.6 mph87%30.36 "HgN/A
4:20 AM39 °FPassing clouds.8 mph87%30.36 "HgN/A
3:50 AM39 °FPassing clouds.7 mph87%30.36 "HgN/A
3:20 AM39 °FPassing clouds.7 mph87%30.36 "HgN/A
2:50 AM41 °FPassing clouds.8 mph81%30.36 "HgN/A
2:20 AM41 °FQuite cool.8 mph81%30.36 "HgN/A
1:50 AM41 °FQuite cool.10 mph87%30.36 "HgN/A
1:20 AM41 °FPassing clouds.9 mph87%30.36 "HgN/A
12:50 AM43 °FPassing clouds.9 mph81%30.36 "HgN/A
12:20 AM43 °FPassing clouds.10 mph87%30.33 "HgN/A
11:50 PM
Fri, Apr 17
43 °FPassing clouds.8 mph81%30.33 "HgN/A
11:20 PM45 °FPassing clouds.9 mph76%30.33 "HgN/A
10:50 PM45 °FPassing clouds.6 mph76%30.33 "HgN/A
10:20 PM46 °FPassing clouds.8 mph76%30.30 "HgN/A
9:50 PM46 °FPassing clouds.9 mph71%30.30 "HgN/A
9:20 PM46 °FClear.8 mph76%30.30 "Hg10 mi
Weather by CustomWeather, © 2015

See weather overviewHow to use our weather pages